[[{"header":{"parameterUnit":"m.s-1","parameterCategory":1,"la1":30.2992,"la2":30.254,"lo1":-89.0895,"lo2":-89.0443,"dy":0.0025,"dx":0.0025,"nx":19,"ny":19,"refTime":"2026-05-11T09:00:00:Z","depth":0,"parameterNumber":2,"parameterNumberName":"U-component_of_WINDS"},"data":[0,0,0,-0.2193,-0.2193,-0.2195,-0.2195,-0.2199,-0.2199,0,0,0,0,0,0,0,0,0,0,0,-0.2193,-0.2193,-0.2193,-0.2193,-0.2195,-0.2195,-0.2199,-0.2199,0,0,0,0,0,0,0,0,0,0,0,-0.2193,-0.2193,-0.2193,-0.2193,-0.2195,-0.2195,-0.2199,-0.2197,0,0,0,0,0,0,0,0,0,0,-0.2195,-0.2195,-0.2193,-0.2193,-0.2193,-0.2195,-0.2195,-0.2197,-0.2197,-0.2199,0,-0.22,0,-0.2199,-0.2199,-0.2199,0,0,0,-0.2193,-0.2195,-0.2195,-0.2193,-0.2193,-0.2195,-0.2194,-0.2197,-0.2197,-0.2199,-0.22,-0.22,-0.22,-0.2199,-0.2199,-0.2208,-0.2208,0,0,-0.2193,-0.2194,-0.2195,-0.2195,-0.2195,-0.2194,-0.2194,-0.2197,-0.2198,-0.22,-0.22,-0.22,-0.2199,-0.2199,-0.2208,-0.2208,0,0,0,-0.2193,-0.2194,-0.2194,-0.2195,-0.2196,-0.2194,-0.2194,-0.2198,-0.2198,-0.22,-0.22,-0.2199,-0.22,-0.2208,-0.2208,-0.2212,0,0,0,-0.2193,-0.2194,-0.2194,-0.2194,-0.2196,-0.2197,-0.2195,-0.2198,-0.2198,-0.22,-0.2199,-0.22,-0.2208,-0.2208,-0.2212,-0.2214,0,0,0,-0.2193,-0.2194,-0.2194,-0.2194,-0.2195,-0.2197,-0.2197,-0.2198,-0.2198,-0.2199,-0.22,-0.2208,-0.2208,-0.2212,-0.2214,-0.2217,0,0,0,-0.2193,-0.2197,-0.2194,-0.2198,-0.2195,-0.2199,-0.2197,-0.22,-0.2201,-0.2199,-0.2208,-0.2208,-0.2212,-0.2214,-0.2217,-0.2221,-0.2222,0,0,-0.2199,-0.2198,-0.22,-0.2198,-0.2202,-0.2199,-0.2204,-0.2205,-0.2204,-0.2207,-0.2207,-0.2212,-0.2214,-0.2217,-0.2229,-0.223,0,0,0,-0.2202,-0.2204,-0.2205,-0.2207,-0.2208,-0.2209,-0.2208,-0.2209,-0.2211,-0.2206,-0.2214,-0.2215,-0.2217,-0.2219,-0.222,-0.2222,-0.2209,-0.2209,-0.2209,-0.2211,-0.221,-0.2215,-0.2214,-0.2216,-0.2216,-0.2218,-0.2218,-0.2217,-0.2219,-0.222,-0.2227,-0.2229,-0.223,-0.2232,-0.2221,-0.2221,-0.2221,-0.2221,-0.2219,-0.2222,-0.222,-0.2224,-0.2223,-0.2226,-0.2227,-0.2226,-0.2229,-0.2226,-0.2228,-0.2225,-0.2231,-0.2233,-0.2221,-0.2221,-0.2221,-0.2221,-0.2221,-0.2225,-0.2226,-0.2227,-0.223,-0.2232,-0.2232,-0.2236,-0.2235,-0.2234,-0.2236,-0.2237,-0.2237,-0.2237,-0.2236,-0.2236,-0.2236,-0.2236,-0.2236,-0.2236,-0.2231,-0.2232,-0.2235,-0.2236,-0.2238,-0.224,-0.224,-0.2242,-0.2244,-0.2243,-0.2243,-0.2242,-0.2232,-0.223,-0.2237,-0.2237,-0.2237,-0.2237,-0.2237,-0.224,-0.2238,-0.2243,-0.2244,-0.2247,-0.225,-0.2249,-0.2252,-0.2254,-0.2256,-0.2254,-0.2247,-0.2246,-0.2245,-0.2243,-0.2254,-0.2254,-0.2254,-0.2254,-0.2246,-0.2245,-0.225,-0.2253,-0.2255,-0.2255,-0.2261,-0.2262,-0.2263,-0.2264,-0.2262,-0.226,-0.2259,-0.2259,-0.2257,-0.2256,-0.2269,-0.2269,-0.2269,-0.2251,-0.2251,-0.2256,-0.2257,-0.2259,-0.2261,-0.2267,-0.2271,-0.2271,-0.227,-0.2265,-0.2264,-0.226,-0.2259,-0.2257,-0.2256,-0.2253,0,0]},{"header":{"parameterUnit":"m.s-1","parameterCategory":1,"la1":30.2992,"la2":30.254,"lo1":-89.0895,"lo2":-89.0443,"dy":0.0025,"dx":0.0025,"nx":19,"ny":19,"refTime":"2026-05-11T09:00:00:Z","depth":0,"parameterNumber":3,"parameterNumberName":"V-component_of_WINDS"},"data":[0,0,0,-0.0557,-0.0557,-0.056,-0.056,-0.056,-0.056,0,0,0,0,0,0,0,0,0,0,0,-0.0552,-0.0552,-0.0557,-0.0557,-0.056,-0.056,-0.056,-0.056,0,0,0,0,0,0,0,0,0,0,0,-0.0553,-0.0552,-0.0552,-0.0557,-0.056,-0.056,-0.056,-0.0559,0,0,0,0,0,0,0,0,0,0,-0.0556,-0.055,-0.0552,-0.0552,-0.0557,-0.056,-0.056,-0.0559,-0.0559,-0.0557,0,-0.0554,0,-0.0557,-0.056,-0.056,0,0,0,-0.0559,-0.055,-0.0554,-0.0552,-0.0557,-0.056,-0.0559,-0.0559,-0.0559,-0.0557,-0.0554,-0.0554,-0.0557,-0.056,-0.056,-0.0539,-0.0539,0,0,-0.0558,-0.0551,-0.0553,-0.0553,-0.0553,-0.0559,-0.0559,-0.0559,-0.0556,-0.0554,-0.0554,-0.0557,-0.056,-0.056,-0.054,-0.0539,0,0,0,-0.0556,-0.0551,-0.0555,-0.0553,-0.0554,-0.0559,-0.0559,-0.0556,-0.0557,-0.0554,-0.0557,-0.056,-0.056,-0.054,-0.0539,-0.0524,0,0,0,-0.0556,-0.055,-0.0555,-0.0551,-0.0554,-0.0555,-0.0555,-0.0557,-0.0558,-0.0557,-0.056,-0.056,-0.054,-0.054,-0.0524,-0.0517,0,0,0,-0.0553,-0.055,-0.0549,-0.055,-0.0552,-0.0555,-0.0557,-0.0558,-0.0559,-0.056,-0.056,-0.054,-0.054,-0.0525,-0.0518,-0.051,0,0,0,-0.0548,-0.0534,-0.0549,-0.0535,-0.0552,-0.0545,-0.0557,-0.0553,-0.0551,-0.056,-0.054,-0.0539,-0.0525,-0.0519,-0.0511,-0.0502,-0.0497,0,0,-0.0527,-0.0531,-0.0524,-0.0537,-0.0527,-0.0545,-0.0533,-0.0537,-0.0544,-0.054,-0.054,-0.0524,-0.0518,-0.051,-0.0475,-0.0471,0,0,0,-0.0515,-0.051,-0.0509,-0.0507,-0.0512,-0.0515,-0.0523,-0.0525,-0.0523,-0.0541,-0.0519,-0.0516,-0.0511,-0.0507,-0.0504,-0.0501,-0.0537,-0.0537,-0.0537,-0.0475,-0.0485,-0.0474,-0.0484,-0.0483,-0.0492,-0.0492,-0.0496,-0.0505,-0.05,-0.0499,-0.0477,-0.0472,-0.047,-0.0466,-0.0495,-0.0495,-0.0495,-0.0495,-0.0446,-0.044,-0.0454,-0.0448,-0.0458,-0.0454,-0.0462,-0.0469,-0.0467,-0.0478,-0.0474,-0.0486,-0.0465,-0.0463,-0.0494,-0.0494,-0.0494,-0.0494,-0.0495,-0.0421,-0.042,-0.0423,-0.0423,-0.0423,-0.0434,-0.0431,-0.044,-0.0449,-0.0446,-0.0446,-0.0446,-0.0448,-0.0445,-0.0445,-0.0445,-0.0445,-0.0445,-0.0445,-0.0393,-0.0398,-0.0394,-0.0399,-0.04,-0.0403,-0.0413,-0.0414,-0.0419,-0.0426,-0.0426,-0.0436,-0.0462,-0.0468,-0.0444,-0.0444,-0.0444,-0.0444,-0.0444,-0.0359,-0.0369,-0.0363,-0.0365,-0.0372,-0.0371,-0.0384,-0.0386,-0.0389,-0.0387,-0.0399,-0.0416,-0.0421,-0.0424,-0.0429,-0.0396,-0.0396,-0.0396,-0.0396,-0.0338,-0.0342,-0.0339,-0.0341,-0.0344,-0.0356,-0.035,-0.0358,-0.0368,-0.0371,-0.0377,-0.0385,-0.0387,-0.0391,-0.0394,-0.0399,-0.036,-0.036,-0.036,-0.0318,-0.0323,-0.0316,-0.0327,-0.0333,-0.0339,-0.0334,-0.0336,-0.0349,-0.0358,-0.0373,-0.0375,-0.0388,-0.0391,-0.04,-0.0405,-0.0414,0,0]}]]